SCP
0 0 0 0 0 0 3 4 2 3 3 3 3 3 2 1 1 1 0 0 0 1 1 0 0 0 0 0 0 0 0 0
0 0 0 0 0 0 1 4 3 4 3 3 3 3 3 2 1 0 0 0 0 1 0 0 0 0 0 0 0 0 0 0
0 0 0 0 0 0 1 3 3 3 3 3 3 3 2 1 1 1 1 0 1 0 0 0 0 0 0 0 0 0 0 0
0 0 0 0 0 0 0 1 2 3 2 2 2 3 1 1 1 0 0 1 0 1 0 0 0 0 0 0 0 0 0 0
0 0 0 0 0 0 0 0 2 3 2 1 1 2 1 1 1 0 0 0 0 0 0 0 0 0 0 0 0 0 0 0
0 0 0 0 0 0 0 0 1 3 2 1 1 2 2 1 1 0 0 0 0 0 0 0 0 0 0 0 0 0 0 0
0 0 0 0 0 0 0 0 0 1 3 1 1 2 2 1 1 0 0 0 0 0 0 0 0 0 0 0 0 0 0 0
0 0 0 0 0 0 0 0 0 0 2 1 1 2 2 1 1 0 0 0 0 0 0 0 0 0 0 0 0 0 0 0
0 0 0 0 0 0 0 0 0 0 2 2 1 2 2 2 1 0 0 0 0 0 0 0 0 0 0 0 0 0 0 0
0 0 0 0 0 0 0 0 0 0 1 3 2 2 2 2 1 0 0 0 0 0 0 0 0 0 0 0 0 0 0 0
0 0 0 0 0 0 0 0 0 0 2 2 2 2 1 2 1 1 0 0 0 0 0 0 0 0 0 0 0 0 0 0
0 0 0 0 0 0 0 1 1 2 3 3 3 2 2 2 1 1 0 0 0 0 0 0 0 0 0 0 0 0 0 0
0 0 0 0 0 0 0 0 0 1 1 1 1 1 2 1 1 1 0 0 0 0 0 0 0 0 0 0 0 0 0 0
0 0 0 0 0 0 0 0 0 0 0 0 1 1 1 1 1 0 0 0 0 0 0 0 0 0 0 0 0 0 0 0
0 0 0 0 0 0 0 0 0 0 0 0 0 1 1 1 0 0 0 0 0 0 0 0 0 0 0 0 0 0 0 0
0 0 0 0 0 0 0 0 0 0 0 0 0 0 0 1 0 0 0 0 0 0 0 0 0 0 0 0 0 0 0 0
0 0 0 0 0 0 0 0 0 0 0 0 0 0 0 0 0 0 0 0 0 0 0 0 0 0 0 0 0 0 0 0
0 0 0 0 0 -0 0 0 0 0 0 0 0 0 0 0 0 0 0 0 0 0 0 0 0 0 0 0 0 0 0 0
0 0 0 0 0 0 0 0 0 0 0 0 0 0 0 0 0 0 0 0 0 0 0 0 0 0 0 0 0 0 0 0
Wind_Speed_500mb
61 63 64 66 63 58 62 69 61 59 59 60 56 51 51 45 42 32 31 33 40 42 44 42 40 40 45 48 50 50 51 54
41 40 49 62 63 69 53 69 63 63 61 72 62 61 58 60 46 37 32 31 30 40 43 45 44 48 48 45 43 42 49 55
45 43 53 55 58 57 47 53 64 62 64 72 65 58 70 63 59 52 40 31 33 37 43 53 49 44 44 43 39 40 48 65
57 58 57 48 57 55 52 46 51 61 69 71 58 58 68 58 56 52 48 45 43 43 43 49 45 42 38 35 34 36 59 76
17 28 37 37 41 47 62 66 63 64 69 67 71 78 83 75 62 53 48 47 45 40 44 47 42 40 37 32 32 33 65 49
17 25 34 41 39 37 47 66 71 69 77 75 69 69 74 62 56 55 52 43 46 46 45 51 43 40 35 31 34 44 45 69
20 26 27 28 39 51 51 53 74 73 82 73 71 74 59 56 50 58 49 50 44 48 47 49 47 40 42 35 36 38 42 72
35 41 43 47 43 37 60 60 68 79 79 80 75 73 68 58 52 55 51 47 49 55 51 52 54 43 51 47 37 37 42 56
30 34 45 45 46 46 32 60 60 76 74 81 78 70 78 56 57 64 48 41 42 46 49 49 50 48 52 51 54 45 46 51
34 39 46 46 43 48 46 42 59 70 69 78 71 71 67 61 67 58 43 41 32 39 50 52 49 49 49 54 60 62 54 56
42 46 54 48 43 45 36 45 56 65 58 72 71 71 64 62 54 53 52 45 39 33 45 47 53 49 44 48 55 53 54 55
43 47 54 51 39 29 9 7 28 33 47 66 66 68 67 57 57 59 52 56 47 35 43 48 50 52 51 46 47 51 51 51
42 45 55 52 39 35 19 24 19 38 50 64 68 64 67 54 56 53 58 51 45 32 39 38 52 44 47 41 40 46 48 51
49 52 60 58 42 36 19 18 18 21 21 39 55 64 65 57 53 50 47 41 38 37 37 35 40 43 46 44 42 44 36 37
50 61 67 62 47 42 29 14 4 23 26 34 56 69 49 55 50 47 38 39 41 36 34 31 34 35 41 44 45 46 44 43
54 60 63 74 59 51 38 24 7 18 27 34 48 58 52 52 44 44 37 38 42 42 39 35 32 33 32 31 33 33 31 30
56 63 65 68 79 64 55 38 24 14 24 32 40 47 46 45 44 38 35 37 38 40 40 33 26 41 38 33 32 25 21 22
50 62 65 61 64 73 70 59 39 32 26 27 31 36 46 48 43 42 41 38 34 39 38 44 42 37 35 33 35 30 28 36
43 47 54 59 59 63 60 66 68 59 45 30 26 30 37 45 46 49 51 50 48 51 49 47 47 44 40 39 38 40 43 42
Wind_Direction_500mb
237 236 235 237 234 230 220 210 216 232 212 207 209 203 213 218 243 242 236 225 223 227 233 232 234 230 235 240 240 243 243 230
241 231 234 236 236 233 223 202 210 223 217 203 202 207 210 209 212 236 235 230 218 226 236 231 225 235 241 248 246 244 238 222
253 251 233 227 237 237 216 206 208 223 227 211 203 204 222 224 225 221 224 224 216 230 234 234 237 237 240 242 242 232 238 210
239 238 244 237 224 228 221 213 215 222 234 218 199 209 229 228 229 223 217 212 218 227 232 237 239 232 233 244 221 227 202 197
286 278 271 268 247 230 226 223 218 217 231 229 194 212 220 228 223 226 223 213 217 221 228 238 238 231 231 237 217 212 212 205
308 298 289 281 272 262 240 220 211 214 225 233 210 213 225 233 212 227 217 214 214 218 220 234 234 226 227 235 193 200 213 211
14 341 324 294 279 269 264 243 218 212 215 227 214 211 210 216 207 217 214 208 216 209 226 231 236 228 222 215 206 204 210 197
19 354 319 313 292 307 257 251 227 211 212 223 217 214 207 205 213 215 214 207 207 212 216 226 229 222 210 218 207 203 204 212
20 342 322 309 298 295 294 248 241 213 210 217 220 209 209 203 210 212 221 212 217 209 218 226 220 223 218 218 219 217 224 219
10 342 330 323 311 304 285 245 234 212 213 213 211 207 209 199 208 212 200 222 220 211 203 222 224 225 223 218 219 229 223 230
3 347 338 335 334 324 280 239 227 214 208 211 207 205 210 205 208 196 192 213 220 219 206 214 224 223 218 215 217 218 232 216
2 347 345 341 345 348 17 179 204 209 206 200 193 204 206 200 206 196 193 204 217 217 198 202 215 222 218 218 217 217 225 225
4 357 354 347 355 7 19 16 209 207 200 199 200 204 205 202 204 193 205 209 214 202 196 202 203 199 201 212 215 214 224 226
13 8 5 1 1 12 10 23 304 249 234 210 215 206 201 200 200 199 209 212 192 187 194 198 196 206 213 213 212 217 228 228
17 19 12 14 2 19 21 57 218 273 251 234 214 195 199 195 194 199 198 190 184 184 186 191 197 205 209 214 217 221 230 233
18 20 22 22 17 18 24 40 120 199 212 211 204 203 195 191 187 198 196 197 190 185 184 192 192 189 191 195 202 207 208 213
27 31 33 33 31 23 27 30 60 122 185 193 193 191 181 183 198 192 196 197 197 192 192 193 186 200 196 199 201 205 214 217
29 36 39 36 40 36 35 39 46 72 104 142 164 165 174 177 179 186 184 186 193 195 191 193 201 209 207 207 201 199 207 215
28 37 41 44 43 48 34 38 45 50 53 66 104 131 159 175 187 189 184 183 189 189 191 197 208 217 223 223 222 219 228 230
Wind_Speed_850mb
61 63 64 66 63 58 62 69 61 59 59 60 56 51 51 45 42 32 31 33 40 42 44 42 40 40 45 48 50 50 51 54
41 40 49 62 63 69 53 69 63 63 61 72 62 61 58 60 46 37 32 31 30 40 43 45 44 48 48 45 43 42 49 55
45 43 53 55 58 57 47 53 64 62 64 72 65 58 70 63 59 52 40 31 33 37 43 53 49 44 44 43 39 40 48 65
57 58 57 48 57 55 52 46 51 61 69 71 58 58 68 58 56 52 48 45 43 43 43 49 45 42 38 35 34 36 59 76
17 28 37 37 41 47 62 66 63 64 69 67 71 78 83 75 62 53 48 47 45 40 44 47 42 40 37 32 32 33 65 49
17 25 34 41 39 37 47 66 71 69 77 75 69 69 74 62 56 55 52 43 46 46 45 51 43 40 35 31 34 44 45 69
20 26 27 28 39 51 51 53 74 73 82 73 71 74 59 56 50 58 49 50 44 48 47 49 47 40 42 35 36 38 42 72
35 41 43 47 43 37 60 60 68 79 79 80 75 73 68 58 52 55 51 47 49 55 51 52 54 43 51 47 37 37 42 56
30 34 45 45 46 46 32 60 60 76 74 81 78 70 78 56 57 64 48 41 42 46 49 49 50 48 52 51 54 45 46 51
34 39 46 46 43 48 46 42 59 70 69 78 71 71 67 61 67 58 43 41 32 39 50 52 49 49 49 54 60 62 54 56
42 46 54 48 43 45 36 45 56 65 58 72 71 71 64 62 54 53 52 45 39 33 45 47 53 49 44 48 55 53 54 55
43 47 54 51 39 29 9 7 28 33 47 66 66 68 67 57 57 59 52 56 47 35 43 48 50 52 51 46 47 51 51 51
42 45 55 52 39 35 19 24 19 38 50 64 68 64 67 54 56 53 58 51 45 32 39 38 52 44 47 41 40 46 48 51
49 52 60 58 42 36 19 18 18 21 21 39 55 64 65 57 53 50 47 41 38 37 37 35 40 43 46 44 42 44 36 37
50 61 67 62 47 42 29 14 4 23 26 34 56 69 49 55 50 47 38 39 41 36 34 31 34 35 41 44 45 46 44 43
54 60 63 74 59 51 38 24 7 18 27 34 48 58 52 52 44 44 37 38 42 42 39 35 32 33 32 31 33 33 31 30
56 63 65 68 79 64 55 38 24 14 24 32 40 47 46 45 44 38 35 37 38 40 40 33 26 41 38 33 32 25 21 22
50 62 65 61 64 73 70 59 39 32 26 27 31 36 46 48 43 42 41 38 34 39 38 44 42 37 35 33 35 30 28 36
43 47 54 59 59 63 60 66 68 59 45 30 26 30 37 45 46 49 51 50 48 51 49 47 47 44 40 39 38 40 43 42
Wind_Direction_850mb
237 236 235 237 234 230 220 210 216 232 212 207 209 203 213 218 243 242 236 225 223 227 233 232 234 230 235 240 240 243 243 230
241 231 234 236 236 233 223 202 210 223 217 203 202 207 210 209 212 236 235 230 218 226 236 231 225 235 241 248 246 244 238 222
253 251 233 227 237 237 216 206 208 223 227 211 203 204 222 224 225 221 224 224 216 230 234 234 237 237 240 242 242 232 238 210
239 238 244 237 224 228 221 213 215 222 234 218 199 209 229 228 229 223 217 212 218 227 232 237 239 232 233 244 221 227 202 197
286 278 271 268 247 230 226 223 218 217 231 229 194 212 220 228 223 226 223 213 217 221 228 238 238 231 231 237 217 212 212 205
308 298 289 281 272 262 240 220 211 214 225 233 210 213 225 233 212 227 217 214 214 218 220 234 234 226 227 235 193 200 213 211
14 341 324 294 279 269 264 243 218 212 215 227 214 211 210 216 207 217 214 208 216 209 226 231 236 228 222 215 206 204 210 197
19 354 319 313 292 307 257 251 227 211 212 223 217 214 207 205 213 215 214 207 207 212 216 226 229 222 210 218 207 203 204 212
20 342 322 309 298 295 294 248 241 213 210 217 220 209 209 203 210 212 221 212 217 209 218 226 220 223 218 218 219 217 224 219
10 342 330 323 311 304 285 245 234 212 213 213 211 207 209 199 208 212 200 222 220 211 203 222 224 225 223 218 219 229 223 230
3 347 338 335 334 324 280 239 227 214 208 211 207 205 210 205 208 196 192 213 220 219 206 214 224 223 218 215 217 218 232 216
2 347 345 341 345 348 17 179 204 209 206 200 193 204 206 200 206 196 193 204 217 217 198 202 215 222 218 218 217 217 225 225
4 357 354 347 355 7 19 16 209 207 200 199 200 204 205 202 204 193 205 209 214 202 196 202 203 199 201 212 215 214 224 226
13 8 5 1 1 12 10 23 304 249 234 210 215 206 201 200 200 199 209 212 192 187 194 198 196 206 213 213 212 217 228 228
17 19 12 14 2 19 21 57 218 273 251 234 214 195 199 195 194 199 198 190 184 184 186 191 197 205 209 214 217 221 230 233
18 20 22 22 17 18 24 40 120 199 212 211 204 203 195 191 187 198 196 197 190 185 184 192 192 189 191 195 202 207 208 213
27 31 33 33 31 23 27 30 60 122 185 193 193 191 181 183 198 192 196 197 197 192 192 193 186 200 196 199 201 205 214 217
29 36 39 36 40 36 35 39 46 72 104 142 164 165 174 177 179 186 184 186 193 195 191 193 201 209 207 207 201 199 207 215
28 37 41 44 43 48 34 38 45 50 53 66 104 131 159 175 187 189 184 183 189 189 191 197 208 217 223 223 222 219 228 230